Simultaneous Nadir Overpasses (SNOs) Predictions

Prediction of SNOs between GOES-14 and NOAA-20 Satellite Orbit:

Table of predicted SNOs for the next 14.0 days since TLE Epoch: 11/22/2019
Index Date Time (GOES-14) GOES-14 Lat,Lon NOAA-20 Lat,Lon Distance(km) Time Diff (sec)
1 11/22/2019 20:20:27 -0.07,-104.07 -0.11,-104.26 21.11 80
2 11/23/2019 20:04:22 -0.08,-104.08 0.91, -99.73 496.50 80
3 11/25/2019 08:26:10 0.06,-104.26 0.24,-105.01 85.72 80
4 11/26/2019 08:04:46 0.08,-104.25 -0.79,-100.48 430.34 80
5 11/27/2019 20:26:41 -0.05,-104.07 -0.46,-105.77 193.89 80
6 11/28/2019 20:10:37 -0.06,-104.08 0.57,-101.24 323.64 80
7 11/30/2019 08:32:26 0.04,-104.27 0.52,-106.52 255.95 80
8 12/01/2019 08:11:01 0.05,-104.27 -0.44,-101.98 260.23 80
9 12/02/2019 20:32:57 -0.03,-104.07 -0.74,-107.28 366.27 80
10 12/03/2019 20:16:51 -0.04,-104.08 0.23,-102.74 151.46 80
11 12/05/2019 08:38:41 0.02,-104.30 0.86,-108.03 425.17 80
12 12/06/2019 08:17:16 0.03,-104.30 -0.17,-103.50 91.43 80




NCC Satellite Simultaneous Nadir Overpasses (SNOs) Prediction Service
